When you browse on this site, cookies collect data to enhance your experience and personalize the content and advertising you see.
Visit our Privacy Policy to learn more. By continuing to use the site, you agree to this use of cookies and data.

Hourly Weather Ghazni

Today, 4 August, Tuesday

Time Temperature Precipitation Wind Pressure Humidity
00:00 +25°C° 0 mm 3 mps 584 mmHg 19%
01:00 +24°C° 0 mm 2 mps 583 mmHg 21%
02:00 +23°C° 0 mm 1 mps 583 mmHg 23%
03:00 +22°C° 0 mm 1 mps 583 mmHg 26%
04:00 +21°C° 0 mm 1 mps 582 mmHg 28%
05:00 +19°C° 0 mm 0 mps 582 mmHg 25%
06:00 +22°C° 0 mm 1 mps 583 mmHg 24%
07:00 +23°C° 0 mm 1 mps 584 mmHg 24%
08:00 +25°C° 0 mm 1 mps 584 mmHg 23%
09:00 +26°C° 0 mm 1 mps 585 mmHg 20%
10:00 +27°C° 0 mm 2 mps 585 mmHg 16%
11:00 +29°C° 0 mm 2 mps 585 mmHg 13%
12:00 +30°C° 0 mm 2 mps 585 mmHg 12%
13:00 +31°C° 0 mm 3 mps 585 mmHg 10%
14:00 +33°C° 0 mm 3 mps 585 mmHg 9%
15:00 +33°C° 0 mm 3 mps 585 mmHg 9%
16:00 +34°C° 0 mm 3 mps 584 mmHg 8%
17:00 +34°C° 0 mm 4 mps 584 mmHg 8%
18:00 +33°C° 0 mm 3 mps 584 mmHg 9%
19:00 +31°C° 0 mm 3 mps 584 mmHg 9%
20:00 +30°C° 0 mm 2 mps 584 mmHg 10%
21:00 +28°C° 0 mm 2 mps 584 mmHg 18%
22:00 +27°C° 0 mm 2 mps 584 mmHg 25%
23:00 +26°C° 0 mm 2 mps 584 mmHg 33%

Tomorrow, 5 August, Wednesday

Time Temperature Precipitation Wind Pressure Humidity
00:00 +25°C° 0 mm 2 mps 584 mmHg 33%
01:00 +25°C° 0 mm 2 mps 584 mmHg 33%
02:00 +25°C° 0 mm 2 mps 584 mmHg 33%
03:00 +24°C° 0 mm 3 mps 584 mmHg 31%
04:00 +22°C° 0 mm 3 mps 584 mmHg 29%
05:00 +22°C° 0 mm 4 mps 584 mmHg 27%
06:00 +22°C° 0 mm 3 mps 584 mmHg 25%
07:00 +24°C° 0 mm 3 mps 585 mmHg 23%
08:00 +25°C° 0 mm 3 mps 586 mmHg 22%
09:00 +26°C° 0 mm 3 mps 586 mmHg 21%
10:00 +27°C° 0 mm 3 mps 586 mmHg 21%
11:00 +29°C° 0 mm 2 mps 587 mmHg 21%
12:00 +30°C° 0 mm 2 mps 587 mmHg 19%
13:00 +31°C° 0 mm 2 mps 587 mmHg 16%
14:00 +32°C° 0 mm 2 mps 587 mmHg 14%
15:00 +33°C° 0 mm 3 mps 587 mmHg 14%
16:00 +34°C° 0 mm 3 mps 586 mmHg 14%
17:00 +34°C° 0 mm 3 mps 586 mmHg 13%
18:00 +32°C° 0 mm 2 mps 586 mmHg 15%
19:00 +31°C° 0 mm 2 mps 586 mmHg 16%
20:00 +30°C° 0 mm 1 mps 587 mmHg 17%
21:00 +29°C° 0 mm 2 mps 587 mmHg 19%
22:00 +28°C° 0 mm 2 mps 587 mmHg 21%
23:00 +27°C° 0 mm 3 mps 587 mmHg 23%

Day after tomorrow, 6 August, Thursday

Time Temperature Precipitation Wind Pressure Humidity
00:00 +26°C° 0 mm 3 mps 587 mmHg 23%
01:00 +26°C° 0 mm 2 mps 587 mmHg 23%
02:00 +25°C° 0 mm 2 mps 587 mmHg 23%
03:00 +25°C° 0 mm 2 mps 586 mmHg 25%
04:00 +24°C° 0 mm 2 mps 586 mmHg 26%
05:00 +24°C° 0 mm 2 mps 586 mmHg 28%
06:00 +25°C° 0 mm 2 mps 587 mmHg 27%
07:00 +26°C° 0 mm 2 mps 587 mmHg 26%
08:00 +27°C° 0 mm 2 mps 588 mmHg 24%
09:00 +28°C° 0 mm 2 mps 588 mmHg 23%
10:00 +29°C° 0 mm 2 mps 589 mmHg 22%
11:00 +30°C° 0 mm 1 mps 589 mmHg 21%
12:00 +31°C° 0 mm 2 mps 589 mmHg 18%
13:00 +32°C° 0 mm 2 mps 589 mmHg 15%
14:00 +34°C° 0 mm 2 mps 589 mmHg 13%
15:00 +35°C° 0 mm 2 mps 589 mmHg 12%
16:00 +35°C° 0 mm 3 mps 588 mmHg 11%
17:00 +35°C° 0 mm 3 mps 588 mmHg 10%
18:00 +34°C° 0 mm 3 mps 588 mmHg 11%
19:00 +32°C° 0 mm 2 mps 588 mmHg 12%
20:00 +31°C° 0 mm 2 mps 588 mmHg 13%
21:00 +30°C° 0 mm 2 mps 588 mmHg 20%
22:00 +29°C° 0 mm 2 mps 587 mmHg 27%
23:00 +28°C° 0 mm 2 mps 587 mmHg 34%

7 August, Friday

Time Temperature Precipitation Wind Pressure Humidity
00:00 +27°C° 0 mm 2 mps 587 mmHg 36%
01:00 +26°C° 0 mm 1 mps 587 mmHg 37%
02:00 +26°C° 0 mm 1 mps 587 mmHg 39%
03:00 +25°C° 0 mm 1 mps 587 mmHg 40%
04:00 +25°C° 0 mm 1 mps 586 mmHg 41%
05:00 +24°C° 0 mm 1 mps 586 mmHg 42%
06:00 +25°C° 0 mm 1 mps 587 mmHg 39%
07:00 +26°C° 0 mm 1 mps 587 mmHg 36%
08:00 +27°C° 0 mm 1 mps 588 mmHg 32%
09:00 +29°C° 0 mm 1 mps 588 mmHg 29%
10:00 +30°C° 0 mm 2 mps 589 mmHg 26%
11:00 +31°C° 0 mm 2 mps 589 mmHg 23%
12:00 +32°C° 0 mm 2 mps 589 mmHg 21%
13:00 +34°C° 0 mm 2 mps 589 mmHg 19%
14:00 +35°C° 0 mm 2 mps 589 mmHg 17%
15:00 +35°C° 0 mm 2 mps 589 mmHg 17%
16:00 +35°C° 0 mm 3 mps 589 mmHg 17%
17:00 +35°C° 0 mm 3 mps 588 mmHg 17%
18:00 +34°C° 0 mm 4 mps 588 mmHg 23%
19:00 +32°C° 0 mm 5 mps 588 mmHg 30%
20:00 +30°C° 0 mm 6 mps 588 mmHg 37%
21:00 +29°C° 0 mm 5 mps 588 mmHg 41%
22:00 +28°C° 0 mm 4 mps 588 mmHg 46%
23:00 +27°C° 0 mm 4 mps 588 mmHg 50%

8 August, Saturday

Time Temperature Precipitation Wind Pressure Humidity
00:00 +27°C° 0 mm 3 mps 587 mmHg 52%
01:00 +26°C° 0 mm 2 mps 587 mmHg 54%
02:00 +26°C° 0 mm 1 mps 587 mmHg 55%
03:00 +25°C° 0 mm 1 mps 586 mmHg 57%
04:00 +25°C° 0 mm 1 mps 586 mmHg 58%
05:00 +24°C° 0 mm 1 mps 586 mmHg 59%
06:00 +25°C° 0 mm 1 mps 586 mmHg 57%
07:00 +25°C° 0 mm 1 mps 586 mmHg 54%
08:00 +26°C° 0 mm 1 mps 587 mmHg 52%
09:00 +27°C° 0 mm 1 mps 587 mmHg 46%
10:00 +29°C° 0 mm 1 mps 587 mmHg 41%
11:00 +30°C° 0 mm 1 mps 587 mmHg 36%
12:00 +31°C° 0 mm 2 mps 587 mmHg 32%
13:00 +32°C° 0 mm 2 mps 587 mmHg 28%
14:00 +35°C° 0 mm 3 mps 587 mmHg 25%
15:00 +35°C° 0 mm 3 mps 587 mmHg 23%
16:00 +35°C° 0 mm 2 mps 587 mmHg 22%
17:00 +36°C° 0 mm 2 mps 586 mmHg 21%
18:00 +35°C° 0 mm 3 mps 586 mmHg 21%
19:00 +35°C° 0 mm 3 mps 586 mmHg 22%
20:00 +34°C° 0 mm 4 mps 586 mmHg 22%
21:00 +33°C° 0 mm 4 mps 586 mmHg 25%
22:00 +32°C° 0 mm 4 mps 586 mmHg 28%
23:00 +30°C° 0 mm 4 mps 586 mmHg 31%

9 August, Sunday

Time Temperature Precipitation Wind Pressure Humidity
00:00 +29°C° 0 mm 3 mps 586 mmHg 36%
01:00 +28°C° 0 mm 2 mps 585 mmHg 42%
02:00 +27°C° 0 mm 1 mps 585 mmHg 47%
03:00 +26°C° 0 mm 1 mps 584 mmHg 46%
04:00 +26°C° 0 mm 1 mps 584 mmHg 45%
05:00 +25°C° 0 mm 1 mps 584 mmHg 45%
06:00 +26°C° 0 mm 1 mps 585 mmHg 41%
07:00 +27°C° 0 mm 1 mps 585 mmHg 37%
08:00 +28°C° 0 mm 1 mps 585 mmHg 34%
09:00 +29°C° 0 mm 1 mps 586 mmHg 31%
10:00 +30°C° 0 mm 1 mps 586 mmHg 28%
11:00 +32°C° 0 mm 1 mps 586 mmHg 26%
12:00 +34°C° 0 mm 2 mps 586 mmHg 23%
13:00 +35°C° 0 mm 2 mps 586 mmHg 20%
14:00 +36°C° 0 mm 3 mps 586 mmHg 17%
15:00 +37°C° 0 mm 4 mps 586 mmHg 16%
16:00 +37°C° 0 mm 4 mps 586 mmHg 15%
17:00 +39°C° 0 mm 5 mps 585 mmHg 15%
18:00 +37°C° 0 mm 5 mps 585 mmHg 15%
19:00 +36°C° 0 mm 6 mps 586 mmHg 16%
20:00 +35°C° 0 mm 7 mps 586 mmHg 17%
21:00 +33°C° 0 mm 6 mps 585 mmHg 20%
22:00 +32°C° 0 mm 6 mps 585 mmHg 24%
23:00 +30°C° 0 mm 5 mps 585 mmHg 28%
Show more